[[{"header":{"parameterUnit":"m.s-1","parameterCategory":1,"la1":30.2991,"la2":30.254,"lo1":-89.0895,"lo2":-89.0444,"dy":0.0017,"dx":0.0017,"nx":28,"ny":28,"refTime":"2023-09-14T09:00:00:Z","depth":0,"parameterNumber":2,"parameterNumberName":"U-component_of_WINDS"},"data":[0,0,0,0,0,0,0,0,0,0,0,0,0,0,0,0,0,0,0,0,0,0,0,0,0,0,0,0,0,0,0,0,0,0,0,0,0,0,0,0,0,0,0,0,0,0,0,0,0,0,0,0,0,0,0,0,0,0,1.0316,1.0316,0,1.0357,1.0358,1.0358,1.0378,1.0378,1.0377,1.0377,1.0417,1.0418,1.0419,0,0,0,0,0,0,0,0,0,0,0,0,0,1.0252,1.0253,1.0316,1.0317,1.0317,1.0357,1.0358,1.0358,1.0378,1.0378,1.0377,1.0377,1.0417,1.0418,1.0419,0,0,0,0,0,0,0,0,0,0,0,0,0,1.0285,1.0253,1.0316,1.0332,1.0333,1.0357,1.0358,1.0358,1.0378,1.0378,1.0377,1.0377,1.0416,1.0418,1.042,1.043,0,0,1.0425,1.0425,0,0,0,0,0,0,0,0,1.0283,1.0287,1.0329,1.0331,1.0333,1.0362,1.035,1.0382,1.0378,1.0361,1.0377,1.0377,1.0399,1.0402,1.041,1.0432,1.0434,1.0425,1.0426,1.0426,1.0427,0,0,0,0,0,0,0,1.0281,1.0286,1.0332,1.0329,1.0332,1.0336,1.034,1.0356,1.0379,1.0362,1.0364,1.0368,1.04,1.0408,1.0411,1.0434,1.0425,1.0426,1.0427,1.0428,1.0468,1.0468,0,0,0,0,0,0,1.0276,1.0284,1.0331,1.0333,1.0307,1.0337,1.0342,1.0353,1.0379,1.0383,1.0368,1.0369,1.0405,1.0409,1.0412,1.0427,1.0426,1.0428,1.0429,1.0468,1.0468,1.0468,0,0,0,0,0,0,1.0275,1.028,1.0329,1.0309,1.0316,1.0338,1.035,1.0354,1.0362,1.0384,1.0388,1.0373,1.0405,1.041,1.0426,1.0428,1.0429,1.043,1.0468,1.0468,1.0468,1.0455,0,0,0,0,0,0,1.0273,1.028,1.0284,1.0309,1.0317,1.0343,1.035,1.0354,1.0365,1.0366,1.0389,1.0393,1.0406,1.0423,1.0427,1.043,1.0431,1.0467,1.0468,1.0468,1.0455,1.0455,1.0454,0,0,0,0,0,1.0271,1.0278,1.0284,1.029,1.0323,1.0343,1.0347,1.0363,1.0365,1.037,1.0384,1.0392,1.0427,1.0425,1.043,1.0433,1.0467,1.0468,1.0468,1.0456,1.0455,1.0454,0,0,0,0,0,0,1.0253,1.0282,1.0289,1.0305,1.0322,1.0346,1.0352,1.0361,1.0377,1.0377,1.0395,1.04,1.0414,1.0425,1.0422,1.0445,1.0448,1.0449,1.0437,1.0437,1.0436,1.0433,1.0433,0,0,0,0,0,1.0251,1.0265,1.029,1.0302,1.031,1.033,1.0339,1.0349,1.0367,1.0373,1.0389,1.0405,1.0419,1.0429,1.0443,1.0457,1.0462,1.0462,1.0461,1.0461,1.0461,1.047,1.047,1.0469,1.0469,1.0469,0,0,1.0247,1.0264,1.0272,1.0299,1.0312,1.0326,1.0335,1.0349,1.036,1.0375,1.0392,1.0403,1.0422,1.0437,1.0445,1.0447,1.0463,1.0461,1.046,1.0461,1.047,1.047,1.047,1.0469,1.0469,1.0469,0,0,1.0246,1.0261,1.0273,1.0287,1.0308,1.0322,1.0324,1.0348,1.0357,1.0374,1.0386,1.0398,1.0423,1.0436,1.0446,1.0451,1.0459,1.0455,1.0452,1.046,1.046,1.046,1.0462,1.0462,1.0456,1.0456,1.0456,0,1.0238,1.0261,1.0278,1.0292,1.0303,1.0319,1.033,1.0343,1.0367,1.0374,1.0377,1.0409,1.0422,1.0441,1.0442,1.0449,1.0453,1.0452,1.0458,1.0459,1.0459,1.0461,1.0462,1.0455,1.0455,1.0455,1.0455,0,1.025,1.0265,1.0272,1.0296,1.0308,1.0321,1.034,1.0349,1.0359,1.0372,1.0389,1.0406,1.0424,1.043,1.0439,1.0449,1.045,1.0455,1.0459,1.0458,1.0461,1.0462,1.0454,1.0454,1.0454,1.0455,0,0,1.0239,1.0274,1.0276,1.0287,1.0312,1.0324,1.0337,1.0356,1.0364,1.038,1.0392,1.0413,1.0418,1.0429,1.044,1.0447,1.045,1.0451,1.0452,1.045,1.0463,1.0459,1.0459,1.0455,1.0456,1.0456,1.0461,0,1.0242,1.0268,1.0284,1.0303,1.0317,1.0332,1.0344,1.036,1.0372,1.0385,1.0399,1.0414,1.0419,1.0426,1.0434,1.0448,1.0453,1.0448,1.0466,1.0466,1.0461,1.0461,1.0456,1.0461,1.0462,1.0462,1.0462,0,1.025,1.0267,1.0287,1.0311,1.0317,1.0327,1.0346,1.0359,1.0377,1.0386,1.0399,1.041,1.0424,1.0427,1.0446,1.0443,1.0451,1.0459,1.046,1.0462,1.0464,1.0463,1.0462,1.0463,1.0464,1.0464,1.0464,0,1.024,1.0268,1.0284,1.0293,1.0321,1.0328,1.0339,1.0358,1.0368,1.0385,1.0392,1.0409,1.0418,1.0431,1.0447,1.0447,1.0465,1.0469,1.0472,1.0472,1.0475,1.0475,1.0476,1.048,1.048,1.048,1.048,0,1.0242,1.0254,1.028,1.029,1.0303,1.0321,1.0334,1.0347,1.0364,1.0376,1.039,1.04,1.042,1.0433,1.0445,1.046,1.0464,1.0471,1.0474,1.047,1.0469,1.0476,1.0476,1.0481,1.0481,1.0481,1.0481,0,1.0233,1.0251,1.027,1.0295,1.0301,1.031,1.0331,1.0341,1.0355,1.037,1.0374,1.0395,1.0412,1.0428,1.045,1.0458,1.0473,1.0477,1.0467,1.0468,1.0471,1.047,1.0476,1.0478,1.0481,1.0481,1.0481,0,1.0233,1.0243,1.0269,1.0279,1.0291,1.0306,1.0317,1.0335,1.0346,1.0368,1.0375,1.0392,1.0408,1.0433,1.045,1.0467,1.0471,1.0472,1.0474,1.0469,1.0471,1.0471,1.0472,1.0471,1.0471,1.0471,1.0471,0,1.0231,1.024,1.0256,1.0275,1.0288,1.0304,1.032,1.0327,1.0348,1.0359,1.0377,1.0388,1.0411,1.0429,1.0448,1.0459,1.0468,1.0471,1.0472,1.0468,1.0462,1.0465,1.0465,1.047,1.047,1.047,1.047,1.047,1.0227,1.0237,1.0257,1.0274,1.0288,1.0303,1.0314,1.0329,1.0344,1.0364,1.0374,1.0392,1.041,1.0437,1.0448,1.0462,1.0464,1.0466,1.0467,1.0467,1.0466,1.046,1.0465,1.0465,1.0465,1.0465,1.0465,0,1.0226,1.024,1.0256,1.0278,1.0292,1.0301,1.0319,1.0329,1.0345,1.0361,1.0376,1.0396,1.0413,1.0431,1.0449,1.0457,1.0462,1.0461,1.046,1.0463,1.0463,1.046,1.0457,1.0457,1.0457,1.0457,1.0457,1.0457,1.0227,1.0244,1.0255,1.0278,1.0292,1.031,1.0319,1.0333,1.0347,1.0369,1.0383,1.0395,1.0412,1.0432,1.0448,1.0453,1.0458,1.0457,1.0463,1.0462,1.0463,1.0463,1.0461,1.0458,1.0458,1.0461,1.0461,1.0462]},{"header":{"parameterUnit":"m.s-1","parameterCategory":1,"la1":30.2991,"la2":30.254,"lo1":-89.0895,"lo2":-89.0444,"dy":0.0017,"dx":0.0017,"nx":28,"ny":28,"refTime":"2023-09-14T09:00:00:Z","depth":0,"parameterNumber":3,"parameterNumberName":"V-component_of_WINDS"},"data":[0,0,0,0,0,0,0,0,0,0,0,0,0,0,0,0,0,0,0,0,0,0,0,0,0,0,0,0,0,0,0,0,0,0,0,0,0,0,0,0,0,0,0,0,0,0,0,0,0,0,0,0,0,0,0,0,0,0,-2.2744,-2.2746,0,-2.2857,-2.2858,-2.286,-2.2876,-2.2875,-2.2874,-2.2873,-2.2988,-2.2992,-2.2995,0,0,0,0,0,0,0,0,0,0,0,0,0,-2.2542,-2.2546,-2.2744,-2.2746,-2.2747,-2.2857,-2.2859,-2.286,-2.2877,-2.2875,-2.2874,-2.2873,-2.2986,-2.2991,-2.2996,0,0,0,0,0,0,0,0,0,0,0,0,0,-2.264,-2.2547,-2.2744,-2.2769,-2.2772,-2.2857,-2.2859,-2.286,-2.2877,-2.2875,-2.2874,-2.2872,-2.2985,-2.2991,-2.2996,-2.3064,0,0,-2.3015,-2.3017,0,0,0,0,0,0,0,0,-2.2635,-2.2647,-2.2764,-2.2767,-2.2771,-2.2851,-2.2829,-2.2929,-2.2877,-2.2837,-2.2873,-2.2872,-2.2943,-2.2953,-2.2977,-2.307,-2.3074,-2.3015,-2.3019,-2.3022,-2.3023,0,0,0,0,0,0,0,-2.2628,-2.2643,-2.2789,-2.2765,-2.277,-2.2774,-2.2786,-2.2848,-2.2897,-2.284,-2.2842,-2.2855,-2.2945,-2.2971,-2.298,-2.3076,-2.3015,-2.3021,-2.3024,-2.3027,-2.323,-2.3232,0,0,0,0,0,0,-2.2617,-2.2637,-2.2785,-2.2792,-2.2698,-2.2779,-2.2792,-2.2827,-2.2897,-2.2906,-2.2856,-2.2855,-2.2962,-2.2973,-2.2984,-2.3068,-2.3022,-2.3027,-2.3031,-2.3228,-2.323,-2.3232,0,0,0,0,0,0,-2.2612,-2.263,-2.2781,-2.2715,-2.2735,-2.2784,-2.2823,-2.283,-2.2856,-2.2909,-2.2917,-2.2874,-2.2961,-2.2976,-2.3044,-2.3072,-2.303,-2.3035,-2.3226,-2.3229,-2.3231,-2.3236,0,0,0,0,0,0,-2.2606,-2.2628,-2.2654,-2.2716,-2.2738,-2.2839,-2.2824,-2.2833,-2.2867,-2.2867,-2.2928,-2.2936,-2.2961,-2.3035,-2.305,-2.3079,-2.304,-2.3224,-2.3227,-2.323,-2.3233,-2.3238,-2.3242,0,0,0,0,0,-2.2599,-2.2651,-2.2656,-2.2673,-2.2772,-2.2841,-2.2854,-2.2881,-2.2869,-2.2896,-2.2929,-2.2934,-2.3067,-2.3042,-2.3059,-2.309,-2.3222,-2.3226,-2.323,-2.3231,-2.3237,-2.3242,0,0,0,0,0,0,-2.2591,-2.2659,-2.2665,-2.2738,-2.2784,-2.2843,-2.2878,-2.2887,-2.2936,-2.2934,-2.2966,-2.298,-2.3047,-2.3076,-2.3047,-2.316,-2.3143,-2.3151,-2.3138,-2.3144,-2.3149,-2.314,-2.3045,0,0,0,0,0,-2.2597,-2.2648,-2.2705,-2.2764,-2.2786,-2.2828,-2.2859,-2.2877,-2.2925,-2.2944,-2.2983,-2.3029,-2.3081,-2.3114,-2.3165,-2.3238,-2.3251,-2.3268,-2.3273,-2.3276,-2.3282,-2.3322,-2.333,-2.3246,-2.3246,-2.3246,0,0,-2.2612,-2.2655,-2.2685,-2.2763,-2.28,-2.2852,-2.2844,-2.2899,-2.2937,-2.2952,-2.3019,-2.305,-2.3103,-2.3174,-2.3207,-2.32,-2.3308,-2.3281,-2.3284,-2.3288,-2.3327,-2.3335,-2.3342,-2.3248,-2.3248,-2.3248,0,0,-2.2663,-2.2702,-2.2755,-2.2793,-2.285,-2.2877,-2.289,-2.2949,-2.297,-2.3038,-2.305,-2.3096,-2.3185,-2.3223,-2.3254,-2.3321,-2.3328,-2.3337,-2.336,-2.3399,-2.3406,-2.3412,-2.3436,-2.3444,-2.3343,-2.3343,-2.3343,0,-2.2674,-2.2752,-2.2781,-2.2835,-2.2869,-2.2886,-2.294,-2.2976,-2.3046,-2.3069,-2.306,-2.3173,-2.321,-2.329,-2.3306,-2.3331,-2.3346,-2.333,-2.3403,-2.3409,-2.3415,-2.3438,-2.3447,-2.3344,-2.3344,-2.3344,-2.3344,0,-2.2761,-2.2815,-2.2851,-2.2919,-2.2957,-2.3011,-2.3049,-2.3084,-2.3098,-2.3127,-2.3196,-2.3242,-2.3302,-2.3323,-2.3337,-2.3405,-2.3399,-2.3396,-2.338,-2.3424,-2.3445,-2.3454,-2.3345,-2.3344,-2.3344,-2.3344,0,0,-2.2809,-2.2894,-2.2906,-2.2937,-2.3002,-2.3044,-2.3099,-2.3158,-2.3188,-2.3236,-2.3282,-2.3358,-2.3356,-2.3391,-2.341,-2.3445,-2.3494,-2.3438,-2.344,-2.3446,-2.3571,-2.3572,-2.3581,-2.35,-2.3502,-2.3503,-2.3567,0,-2.2868,-2.2966,-2.2995,-2.3077,-2.3127,-2.3145,-2.3193,-2.3237,-2.3266,-2.3312,-2.3344,-2.3396,-2.339,-2.3412,-2.3447,-2.3481,-2.352,-2.3477,-2.3542,-2.3544,-2.3527,-2.3593,-2.3594,-2.3652,-2.3575,-2.3577,-2.3578,0,-2.2949,-2.2999,-2.3087,-2.3145,-2.3167,-2.3209,-2.3267,-2.3311,-2.3362,-2.338,-2.342,-2.3436,-2.3494,-2.3476,-2.3556,-2.3526,-2.3554,-2.3575,-2.3578,-2.3584,-2.3563,-2.36,-2.3671,-2.3679,-2.3592,-2.3591,-2.359,0,-2.2974,-2.3064,-2.3128,-2.3154,-2.3224,-2.3253,-2.3284,-2.3333,-2.3367,-2.3418,-2.344,-2.3496,-2.3526,-2.3569,-2.36,-2.3584,-2.3677,-2.3661,-2.3693,-2.3693,-2.3711,-2.3709,-2.3786,-2.3731,-2.3731,-2.3731,-2.3731,0,-2.3036,-2.3089,-2.314,-2.3179,-2.3239,-2.3272,-2.333,-2.3361,-2.3405,-2.3451,-2.347,-2.3512,-2.3551,-2.3598,-2.3623,-2.3685,-2.3699,-2.3715,-2.3721,-2.3713,-2.3711,-2.3731,-2.3727,-2.3733,-2.3733,-2.3732,-2.3732,0,-2.3074,-2.311,-2.3181,-2.3242,-2.3259,-2.33,-2.3352,-2.339,-2.342,-2.3477,-2.3493,-2.3539,-2.3596,-2.3632,-2.3704,-2.3721,-2.3788,-2.3793,-2.3771,-2.3774,-2.3803,-2.3799,-2.3895,-2.3909,-2.3846,-2.3846,-2.3847,0,-2.311,-2.3151,-2.3216,-2.3248,-2.3279,-2.3331,-2.3366,-2.34,-2.3436,-2.3498,-2.3529,-2.3587,-2.3635,-2.3725,-2.3765,-2.3821,-2.3826,-2.3856,-2.3835,-2.3825,-2.3826,-2.3823,-2.3827,-2.3859,-2.386,-2.386,-2.3861,0,-2.317,-2.3187,-2.3237,-2.3293,-2.3335,-2.3381,-2.3427,-2.3452,-2.3495,-2.3534,-2.3592,-2.363,-2.3704,-2.3762,-2.3821,-2.3852,-2.3863,-2.3867,-2.3877,-2.3869,-2.3854,-2.3862,-2.378,-2.3864,-2.3864,-2.3864,-2.3864,-2.3863,-2.3208,-2.3245,-2.3297,-2.3352,-2.3391,-2.3434,-2.3473,-2.3508,-2.3558,-2.3621,-2.3638,-2.3699,-2.375,-2.3831,-2.3863,-2.3912,-2.3907,-2.3922,-2.3926,-2.3929,-2.3929,-2.3847,-2.3923,-2.3923,-2.3923,-2.3922,-2.3922,0,-2.3268,-2.3303,-2.3353,-2.3418,-2.3461,-2.3469,-2.3521,-2.3556,-2.361,-2.3657,-2.3704,-2.3772,-2.3828,-2.3873,-2.393,-2.396,-2.3967,-2.3974,-2.3972,-2.3979,-2.393,-2.3915,-2.3968,-2.3968,-2.3968,-2.3968,-2.3968,-2.3968,-2.3305,-2.3368,-2.3391,-2.3473,-2.3508,-2.3568,-2.3597,-2.3637,-2.3674,-2.3749,-2.3795,-2.3825,-2.3871,-2.3932,-2.3984,-2.3996,-2.4015,-2.4022,-2.4034,-2.3987,-2.3982,-2.3977,-2.3963,-2.4026,-2.4026,-2.4079,-2.408,-2.408]}]]